RYR215 EBCI-LOWS

Flight info

Callsign RYR215
Flight time N/A
Altitude 37000
Route SOPOK Y863 ROPUV L607 UBIDU L984 RUDUS T109 HAREM T104 WLD T702 OLETU L603 EBEDA L173 TITIG
Aircraft B738/M-SDE2E3FGHIRWXY/LB1

Departure

Time 2026-05-07 14:46
Airport Brussels South Charleroi Airport (EBCI)

Arrival

Time N/A
Airport Salzburg Airport (LOWS)
Time Latitude Longitude Altitude Speed Heading
2026-05-07 14:12 50.46820 4.46932 612 ft 0 kts 335°
2026-05-07 14:14 50.46823 4.46930 612 ft 0 kts 335°
2026-05-07 14:36 50.46818 4.46933 612 ft 4 kts 335°
2026-05-07 14:36 50.46795 4.46949 612 ft 2 kts 335°
2026-05-07 14:37 50.46776 4.46958 612 ft 4 kts 23°
2026-05-07 14:37 50.46756 4.46911 612 ft 1 kts 65°
2026-05-07 14:40 50.46760 4.46926 612 ft 4 kts 65°
2026-05-07 14:40 50.46773 4.46969 612 ft 5 kts 65°
2026-05-07 14:41 50.46786 4.47014 619 ft 4 kts 65°
2026-05-07 14:41 50.46799 4.47059 625 ft 4 kts 65°
2026-05-07 14:41 50.46811 4.47102 621 ft 4 kts 65°
2026-05-07 14:41 50.46823 4.47144 622 ft 4 kts 65°
2026-05-07 14:42 50.46835 4.47186 612 ft 4 kts 65°
2026-05-07 14:42 50.46849 4.47231 612 ft 5 kts 66°
2026-05-07 14:42 50.46851 4.47298 612 ft 7 kts 98°
2026-05-07 14:42 50.46848 4.47378 620 ft 8 kts 78°
2026-05-07 14:43 50.46869 4.47452 612 ft 7 kts 65°
2026-05-07 14:43 50.46889 4.47523 616 ft 7 kts 65°
2026-05-07 14:43 50.46905 4.47593 618 ft 7 kts 85°
2026-05-07 14:43 50.46873 4.47642 612 ft 7 kts 155°
2026-05-07 14:44 50.46830 4.47673 612 ft 7 kts 155°
2026-05-07 14:44 50.46788 4.47704 623 ft 7 kts 155°
2026-05-07 14:44 50.46747 4.47734 612 ft 6 kts 155°
2026-05-07 14:44 50.46705 4.47731 612 ft 6 kts 213°
2026-05-07 14:45 50.46680 4.47673 612 ft 6 kts 245°
2026-05-07 14:45 50.46649 4.47565 620 ft 31 kts 245°
2026-05-07 14:45 50.46450 4.46884 624 ft 105 kts 245°
2026-05-07 14:45 50.46057 4.45536 624 ft 165 kts 245°
2026-05-07 14:46 50.45537 4.43759 1060 ft 183 kts 245°
2026-05-07 14:46 50.45017 4.41919 1954 ft 183 kts 246°
2026-05-07 14:46 50.44516 4.40112 2847 ft 181 kts 248°
2026-05-07 14:46 50.44012 4.38294 3640 ft 182 kts 248°
2026-05-07 14:47 50.43497 4.36440 4321 ft 193 kts 246°
2026-05-07 14:47 50.42905 4.34441 4814 ft 210 kts 245°
2026-05-07 14:47 50.42265 4.32290 5213 ft 222 kts 245°
2026-05-07 14:47 50.41622 4.30051 5649 ft 236 kts 247°
2026-05-07 14:48 50.40849 4.27628 5972 ft 258 kts 234°
2026-05-07 14:48 50.39536 4.25759 6856 ft 254 kts 207°
2026-05-07 14:48 50.37872 4.25133 7874 ft 245 kts 176°
2026-05-07 14:48 50.36241 4.25827 8664 ft 245 kts 149°
2026-05-07 14:49 50.34923 4.27515 9377 ft 248 kts 134°
2026-05-07 14:49 50.33678 4.29427 10030 ft 253 kts 137°
2026-05-07 14:49 50.32528 4.31502 10727 ft 256 kts 114°
2026-05-07 14:49 50.32275 4.34233 11348 ft 263 kts 80°
2026-05-07 14:50 50.32898 4.37051 11599 ft 286 kts 71°
2026-05-07 14:50 50.33502 4.40155 11790 ft 310 kts 75°
2026-05-07 14:50 50.34057 4.43547 11965 ft 334 kts 76°
2026-05-07 14:50 50.34622 4.47205 12143 ft 356 kts 76°
2026-05-07 14:51 50.35209 4.51083 12332 ft 376 kts 77°
2026-05-07 14:51 50.35816 4.55125 12822 ft 385 kts 77°
2026-05-07 14:51 50.36412 4.59100 13488 ft 388 kts 77°
2026-05-07 14:51 50.37041 4.63298 14214 ft 391 kts 77°
2026-05-07 14:52 50.37664 4.67458 14908 ft 394 kts 77°
2026-05-07 14:52 50.38294 4.71661 15588 ft 398 kts 77°
2026-05-07 14:52 50.38926 4.75899 16223 ft 402 kts 77°
2026-05-07 14:52 50.39567 4.80194 16859 ft 406 kts 77°
2026-05-07 14:53 50.40210 4.84519 17494 ft 409 kts 77°
2026-05-07 14:53 50.40858 4.88892 18119 ft 412 kts 77°
2026-05-07 14:53 50.41507 4.93289 18704 ft 416 kts 77°
2026-05-07 14:53 50.42162 4.97728 19262 ft 420 kts 77°
2026-05-07 14:54 50.42822 5.02219 19792 ft 424 kts 77°
2026-05-07 14:54 50.43487 5.06756 20348 ft 428 kts 77°
2026-05-07 14:54 50.44153 5.11314 20882 ft 431 kts 77°
2026-05-07 14:54 50.44822 5.15911 21392 ft 434 kts 77°
2026-05-07 14:55 50.45495 5.20541 21914 ft 436 kts 77°
2026-05-07 14:55 50.46171 5.25207 22398 ft 439 kts 77°
2026-05-07 14:55 50.46839 5.29829 22838 ft 442 kts 77°
2026-05-07 14:55 50.47481 5.34566 23267 ft 445 kts 82°
2026-05-07 14:56 50.47409 5.39423 23655 ft 449 kts 102°
2026-05-07 14:56 50.46386 5.44049 24116 ft 449 kts 117°
2026-05-07 14:56 50.44585 5.48059 24524 ft 451 kts 134°
2026-05-07 14:56 50.42355 5.51518 24935 ft 453 kts 137°
2026-05-07 14:57 50.40062 5.54931 25290 ft 456 kts 137°
2026-05-07 14:57 50.37756 5.58364 25632 ft 459 kts 136°
2026-05-07 14:57 50.35449 5.61844 26004 ft 461 kts 136°
2026-05-07 14:57 50.33146 5.65362 26360 ft 463 kts 136°
2026-05-07 14:58 50.30841 5.68906 26706 ft 466 kts 136°
2026-05-07 14:58 50.28530 5.72456 27034 ft 468 kts 136°
2026-05-07 14:58 50.26996 5.74844 27233 ft 470 kts 133°
2026-05-07 14:58 50.25109 5.79030 27457 ft 474 kts 116°
2026-05-07 14:59 50.24037 5.83888 27813 ft 474 kts 104°
2026-05-07 14:59 50.23242 5.88878 28173 ft 474 kts 103°
2026-05-07 14:59 50.22203 5.95511 28663 ft 474 kts 104°
2026-05-07 14:59 50.21392 6.00497 29099 ft 472 kts 104°
2026-05-07 15:00 50.20831 6.03850 29385 ft 471 kts 104°
2026-05-07 15:00 50.19990 6.08787 29765 ft 471 kts 104°
2026-05-07 15:00 50.19156 6.13646 30137 ft 470 kts 104°
2026-05-07 15:00 50.18534 6.18649 30516 ft 468 kts 96°
2026-05-07 15:01 50.18384 6.23723 30857 ft 467 kts 86°
2026-05-07 15:01 50.18673 6.28761 31175 ft 467 kts 83°
2026-05-07 15:01 50.19036 6.33799 31479 ft 467 kts 83°
2026-05-07 15:01 50.19399 6.38828 31769 ft 468 kts 83°
2026-05-07 15:02 50.19744 6.43880 32121 ft 467 kts 83°
2026-05-07 15:02 50.20066 6.48910 32451 ft 466 kts 84°
2026-05-07 15:02 50.20377 6.53955 32718 ft 467 kts 84°
2026-05-07 15:02 50.20682 6.58999 33045 ft 466 kts 84°
2026-05-07 15:03 50.20985 6.64024 33356 ft 466 kts 84°
2026-05-07 15:03 50.21284 6.69070 33600 ft 467 kts 84°
2026-05-07 15:03 50.21580 6.74108 33860 ft 467 kts 84°
2026-05-07 15:03 50.21875 6.79170 34161 ft 466 kts 84°
2026-05-07 15:04 50.22147 6.84205 34438 ft 466 kts 87°
2026-05-07 15:04 50.22087 6.89274 34641 ft 468 kts 94°
2026-05-07 15:04 50.21813 6.94337 34866 ft 469 kts 95°
2026-05-07 15:04 50.21498 6.99398 35121 ft 468 kts 95°
2026-05-07 15:05 50.21185 7.04464 35373 ft 468 kts 95°
2026-05-07 15:05 50.20889 7.09530 35561 ft 470 kts 95°
2026-05-07 15:05 50.20604 7.14629 35765 ft 471 kts 95°
2026-05-07 15:05 50.20327 7.19735 35970 ft 472 kts 95°
2026-05-07 15:06 50.20049 7.24844 36135 ft 473 kts 95°
2026-05-07 15:06 50.19767 7.29897 36348 ft 473 kts 96°
2026-05-07 15:06 50.19245 7.34967 36525 ft 473 kts 105°
2026-05-07 15:06 50.18281 7.39879 36714 ft 473 kts 109°
2026-05-07 15:07 50.17222 7.44715 37062 ft 469 kts 110°
2026-05-07 15:07 50.16147 7.49544 37023 ft 472 kts 110°
2026-05-07 15:07 50.14036 7.59184 37031 ft 468 kts 109°
2026-05-07 15:08 50.11990 7.68746 37032 ft 463 kts 109°
2026-05-07 15:08 50.09959 7.78250 37039 ft 461 kts 109°
2026-05-07 15:09 50.07922 7.87721 37033 ft 461 kts 109°
2026-05-07 15:09 50.06220 7.97336 37042 ft 461 kts 103°
2026-05-07 15:10 50.04897 8.07105 37052 ft 463 kts 104°
2026-05-07 15:10 50.02965 8.16654 37050 ft 464 kts 110°
2026-05-07 15:11 50.00829 8.26151 37046 ft 466 kts 110°
2026-05-07 15:11 49.98806 8.35288 37046 ft 467 kts 110°
2026-05-07 15:12 49.96704 8.44872 37045 ft 469 kts 110°
2026-05-07 15:12 49.94438 8.54361 37037 ft 468 kts 118°
2026-05-07 15:13 49.91261 8.63083 37045 ft 467 kts 122°
2026-05-07 15:13 49.87959 8.71770 37045 ft 467 kts 122°
2026-05-07 15:14 49.84690 8.80477 37046 ft 467 kts 121°
2026-05-07 15:14 49.81440 8.89201 37047 ft 467 kts 121°
2026-05-07 15:15 49.78188 8.97922 37044 ft 467 kts 121°
2026-05-07 15:15 49.74930 9.06626 37048 ft 467 kts 122°
2026-05-07 15:16 49.71666 9.15312 37040 ft 467 kts 122°
2026-05-07 15:16 49.68401 9.23972 37046 ft 467 kts 122°
2026-05-07 15:17 49.65130 9.32625 37046 ft 466 kts 122°
2026-05-07 15:17 49.61817 9.41225 37042 ft 465 kts 126°
2026-05-07 15:18 49.57715 9.48889 37044 ft 463 kts 134°
2026-05-07 15:18 49.53415 9.56265 37050 ft 463 kts 134°
2026-05-07 15:19 49.49147 9.63683 37047 ft 463 kts 133°
2026-05-07 15:19 49.44903 9.71126 37046 ft 463 kts 133°
2026-05-07 15:20 49.40684 9.78514 37044 ft 463 kts 133°
2026-05-07 15:20 49.36425 9.85915 37045 ft 463 kts 134°
2026-05-07 15:21 49.32130 9.93269 37041 ft 463 kts 134°
2026-05-07 15:21 49.27827 10.00615 37047 ft 463 kts 134°
2026-05-07 15:22 49.23528 10.07952 37049 ft 463 kts 134°
2026-05-07 15:22 49.19221 10.15285 37045 ft 463 kts 134°
2026-05-07 15:23 49.14955 10.22654 37047 ft 463 kts 134°
2026-05-07 15:23 49.10599 10.29900 37046 ft 463 kts 136°
2026-05-07 15:24 49.06139 10.36976 37043 ft 463 kts 136°
2026-05-07 15:24 49.01700 10.44084 37048 ft 463 kts 136°
2026-05-07 15:25 48.97239 10.51156 37043 ft 463 kts 137°
2026-05-07 15:25 48.92758 10.58181 37032 ft 463 kts 136°
2026-05-07 15:26 48.88299 10.65237 37037 ft 463 kts 136°
2026-05-07 15:26 48.83867 10.72238 37042 ft 463 kts 136°
2026-05-07 15:27 48.79393 10.79289 37033 ft 463 kts 137°
2026-05-07 15:27 48.77186 10.82763 37009 ft 450 kts 137°
2026-05-07 15:27 48.75054 10.86118 36978 ft 436 kts 137°
2026-05-07 15:28 48.72945 10.89427 36317 ft 439 kts 137°